This is the latest recevied weather packets stored in our database for station/object K9MWD. If no packets are shown the sender has not sent any weather packets the latest 10 day(s).
| Time | Temp. | Humidity | Pressure | Rain* | Wind** | Luminosity | Snow |
|---|---|---|---|---|---|---|---|
| 1777572601 | 16.11° C | 92% | 1012.4 hPa | 0 mm | - | 407 W/m² | - |
| 1777572301 | 16.11° C | 93% | 1012.5 hPa | 0 mm | - | 428 W/m² | - |
| 1777571997 | 16.11° C | 93% | 1013.2 hPa | 0 mm | - | 323 W/m² | - |
| 1777571697 | 16.11° C | 93% | 1013.3 hPa | 0 mm | - | 340 W/m² | - |
| 1777571395 | 16.11° C | 93% | 1013.6 hPa | 0 mm | - | 334 W/m² | - |
| 1777571091 | 16.11° C | 93% | 1013.8 hPa | 0 mm | - | 242 W/m² | - |
| 1777570787 | 16.11° C | 93% | 1014.1 hPa | 1.27 mm | - | 336 W/m² | - |
| 1777570483 | 16.11° C | 93% | 1014.5 hPa | 1.27 mm | - | 235 W/m² | - |
| 1777570179 | 16.11° C | 93% | 1015.2 hPa | 0 mm | - | 164 W/m² | - |
| 1777569876 | 16.11° C | 93% | 1015.7 hPa | 0 mm | - | 143 W/m² | - |
| 1777569572 | 16.11° C | 93% | 1015.7 hPa | 0 mm | - | 165 W/m² | - |
| 1777569268 | 15.56° C | 93% | 1015.8 hPa | 0 mm | - | 171 W/m² | - |
| 1777568965 | 15.56° C | 93% | 1015.9 hPa | 0 mm | - | 155 W/m² | - |
| 1777568661 | 15.56° C | 93% | 1016 hPa | 0 mm | - | 131 W/m² | - |
| 1777568359 | 15.56° C | 93% | 1016 hPa | 1.78 mm | - | 108 W/m² | - |
| 1777568056 | 15.56° C | 93% | 1016 hPa | 1.78 mm | - | 98 W/m² | - |
| 1777567752 | 15.56° C | 93% | 1016.1 hPa | 0 mm | - | 97 W/m² | - |
| 1777567448 | 15.56° C | 93% | 1016.2 hPa | 0 mm | - | 103 W/m² | - |
| 1777567146 | 15.56° C | 93% | 1015.7 hPa | 1.27 mm | - | 85 W/m² | - |
| 1777566844 | 15.56° C | 92% | 1015.8 hPa | 3.05 mm | - | 69 W/m² | - |
| 1777566541 | 15.56° C | 92% | 1015.7 hPa | 3.05 mm | - | 136 W/m² | - |
| 1777566239 | 15.56° C | 92% | 1015.2 hPa | 1.27 mm | - | 84 W/m² | - |
| 1777565936 | 15.56° C | 92% | 1015.8 hPa | 3.05 mm | - | 74 W/m² | - |
| 1777565631 | 15.56° C | 92% | 1016 hPa | 6.1 mm | - | 76 W/m² | - |
| 1777565328 | 15.56° C | 92% | 1016.1 hPa | 6.6 mm | - | 57 W/m² | - |
* Rain latest hour (hover to see other rain measurements)
** Current wind speed in m/s (hover to see current wind gust speed)